Regional Weather Roundup
Issued by NWS

Home | Current Version | Previous Version | Graphics & Text | Print | Product List | Glossary On
Versions: 1 2 3 4 5 6 7 8 9 10 11 12 13 14 15 16 17 18 19 20 21 22 23 24 25 26 27
000
ASUS45 KCYS 241810
RWRWY

WYOMING REGIONAL WEATHER ROUNDUP
NATIONAL WEATHER SERVICE CHEYENNE WY
1200 PM MDT SUN SEP 24 2017

NOTE:  "FAIR" INDICATES FEW OR NO CLOUDS BELOW 12,000 FEET
WITH NO SIGNIFICANT WEATHER AND/OR OBSTRUCTIONS TO VISIBILITY.

WYZ001-241900-
YELLOWSTONE NATIONAL PARK

CITY           SKY/WX    TMP DP  RH WIND       PRES   REMARKS
LK YELLOWSTONE NOT AVBL
W YELLOWSTONE  NOT AVBL

$$
WYZ002>013-054>058-071-098>099-241900-
NORTHERN WYOMING

CITY           SKY/WX    TMP DP  RH WIND       PRES   REMARKS
JACKSON        FAIR      48  31  51 N15G25    29.97R
CODY           CLOUDY    41  34  76 VRB6      30.11S
GREYBULL       CLOUDY    48  39  71 W5        30.07S
6HR MIN TEMP:  43; 6HR MAX TEMP:  48;

WORLAND        CLOUDY    43  41  93 NW8       30.07R
6HR MIN TEMP:  41; 6HR MAX TEMP:  43;

SHERIDAN       CLOUDY    45  40  82 N7        30.11S
6HR MIN TEMP:  39; 6HR MAX TEMP:  45; 6HR PCP:  0.01;

BUFFALO        CLOUDY    41  36  82 N16       30.09F
6HR MIN TEMP:  37; 6HR MAX TEMP:  41;

GILLETTE       CLOUDY    43  39  86 N10       30.08S
6HR MIN TEMP:  38; 6HR MAX TEMP:  43; 6HR PCP:  0.01;

HULETT         CLOUDY    41  39  93 N5        30.09S
NEWCASTLE      CLOUDY    48  37  66 NW10G17   30.05R

$$
WYZ014>020-022>026-101>103-241900-
CENTRAL WYOMING

CITY           SKY/WX    TMP DP  RH WIND       PRES   REMARKS
BIG PINEY      LGT RAIN  39  36  89 CALM      29.97S
6HR MIN TEMP:  35; 6HR MAX TEMP:  45; 6HR PCP:  0.03;

PINEDALE       CLOUDY    43  32  65 SW8       29.97R
DUBOIS         CLOUDY    36  32  87 SE12      30.03S WCI  27
LANDER         LGT RAIN  37  35  92 NW6       30.06S FOG     WCI  32
6HR MIN TEMP:  35; 6HR MAX TEMP:  38; 6HR PCP:  0.05;

RIVERTON       LGT RAIN  38  37  97 E5        30.08R WCI  34
6HR MIN TEMP:  38; 6HR MAX TEMP:  38; 6HR PCP:  0.03;

CASPER         CLOUDY    40  37  89 NE10      30.06S WCI  33
6HR MIN TEMP:  36; 6HR MAX TEMP:  40; 6HR PCP:  0.02;

DOUGLAS        CLOUDY    44  38  79 N9        30.07S
6HR MIN TEMP:  39; 6HR MAX TEMP:  45; 6HR PCP: TRACE;


$$
WYZ021-027>030-104>119-241900-
SOUTHERN WYOMING

CITY           SKY/WX    TMP DP  RH WIND       PRES   REMARKS
EVANSTON       SNOW      33  33 100 N12       29.93S VSB 1/4 WCI  24
6HR MIN TEMP:  33; 6HR MAX TEMP:  35;

FORT BRIDGER   FOG       34  34 100 NE7       29.96R VSB<1/4 WCI  28
ROCK SPRINGS   SNOW      36  35  96 NE16      29.98F VSB 1/4 WCI  26
6HR MIN TEMP:  33; 6HR MAX TEMP:  37; 6HR PCP:  0.08;

DIXON          CLOUDY    47  38  71 CALM      29.97S
RAWLINS        CLOUDY    40  38  93 E15       30.00R WCI  32
6HR MIN TEMP:  38; 6HR MAX TEMP:  41; 6HR PCP:  0.03;

SARATOGA       CLOUDY    43  37  81 N12G18    29.99S
LARAMIE        CLOUDY    45  36  70 E16       29.99S
6HR MIN TEMP:  39; 6HR MAX TEMP:  45;

CHEYENNE       CLOUDY    42  40  92 E10       30.03S
6HR MIN TEMP:  40; 6HR MAX TEMP:  42; 6HR PCP:  0.03;

TORRINGTON     CLOUDY    48  44  86 N13       30.02F
6HR MIN TEMP:  44; 6HR MAX TEMP:  48; 6HR PCP: TRACE;

PINE BLUFFS    CLOUDY    45  43  93 MISG      30.03S

$$




USA.gov is the U.S. government's official web portal to all federal, state and local government web resources and services.